FW6569 Weather Reports


time (UTC)temp
C
wind
direction
speed
KPH
gust
KPH
rain 1hr
cm
rain 24hr
cm
rain mn
cm
humidity
%
barometer
mb
20260901020549 23 0.0 0.0 0.00 0.00 0.00 93 1019.1
20260901015520 23 0.0 0.0 0.00 0.00 0.00 92 1018.9
20260901014519 24 0.0 0.0 0.00 0.00 0.00 90 1018.8
20260901013620 25 0.0 3.2 0.00 0.00 0.00 88 1018.7
20260901012540 25 162 0.0 3.2 0.00 0.00 0.00 88 1018.6
20260901011529 25 0.0 0.0 0.00 0.00 0.00 87 1018.4
20260901010644 25 320 0.0 4.8 0.00 0.00 0.00 87 1018.2
20260901005520 26 241 1.6 4.8 0.00 0.00 0.00 85 1018.0
20260901004530 26 279 0.0 6.4 0.00 0.00 0.00 83 1018.0
20260901003520 26 252 3.2 6.4 0.00 0.00 0.00 83 1017.9
20260901002520 26 217 4.8 6.4 0.00 0.00 0.00 83 1017.9
20260901001540 27 209 4.8 6.4 0.00 0.00 0.00 82 1017.9
20260901000540 27 0.0 0.0 0.00 0.00 0.00 81 1018.1
20260831235530 28 0.0 0.0 0.00 0.00 0.00 78 1018.1
20260831234540 29 0.0 0.0 0.00 0.00 0.00 76 1018.1
20260831233530 29 215 4.8 8.0 0.00 0.00 0.00 74 1018.0
20260831232520 30 209 4.8 6.4 0.00 0.00 0.00 73 1017.9
20260831231520 30 208 6.4 8.0 0.00 0.00 0.00 71 1018.0
20260831230520 31 197 6.4 8.0 0.00 0.00 0.00 69 1018.0
20260831225543 31 201 6.4 6.4 0.00 0.00 0.00 69 1018.0
20260831224520 31 204 4.8 6.4 0.00 0.00 0.00 69 1018.1
20260831223520 31 200 4.8 6.4 0.00 0.00 0.00 70 1018.2
20260831222530 31 215 4.8 6.4 0.00 0.00 0.00 69 1018.3
20260831221520 31 215 4.8 6.4 0.00 0.00 0.00 69 1018.3
20260831220610 31 202 6.4 9.7 0.00 0.00 0.00 66 1018.4
20260831215521 31 205 6.4 9.7 0.00 0.00 0.00 66 1018.4
20260831214520 32 203 6.4 8.0 0.00 0.00 0.00 65 1018.5
20260831213521 32 206 6.4 9.7 0.00 0.00 0.00 64 1018.5
20260831212530 32 212 8.0 9.7 0.00 0.00 0.00 62 1018.5
20260831211520 32 204 6.4 8.0 0.00 0.00 0.00 64 1018.6
20260831210540 32 233 6.4 8.0 0.00 0.00 0.00 63 1018.7
20260831205520 32 195 9.7 11.3 0.00 0.00 0.00 60 1018.8
20260831204530 32 229 9.7 11.3 0.00 0.00 0.00 62 1018.9
20260831203521 32 217 11.3 16.1 0.00 0.00 0.00 59 1019.0
20260831202520 33 221 9.7 12.9 0.00 0.00 0.00 57 1019.0
20260831201521 33 209 11.3 14.5 0.00 0.00 0.00 58 1019.2
20260831200521 34 210 8.0 11.3 0.00 0.00 0.00 58 1019.3
20260831195530 33 209 6.4 9.7 0.00 0.00 0.00 61 1019.5
20260831194520 33 211 6.4 14.5 0.00 0.00 0.00 57 1019.6
20260831193600 33 228 8.0 9.7 0.00 0.00 0.00 57 1019.7
20260831192550 33 14.5 22.5 0.00 0.00 0.00 58 1019.8
20260831191531 34 256 3.2 8.0 0.00 0.00 0.00 61 1019.8
20260831190650 33 245 4.8 9.7 0.00 0.00 0.00 58 1020.0
20260831185551 33 270 3.2 6.4 0.00 0.00 0.00 65 1020.1
20260831184530 32 257 1.6 4.8 0.00 0.00 0.00 68 1020.1
20260831183541 33 239 6.4 8.0 0.00 0.00 0.00 64 1020.1
20260831182550 32 343 3.2 11.3 0.00 0.00 0.00 66 1020.4
20260831181521 32 211 6.4 9.7 0.00 0.00 0.00 65 1020.4
20260831180520 32 238 8.0 11.3 0.00 0.00 0.00 63 1020.5
20260831175600 32 248 8.0 12.9 0.00 0.00 0.00 63 1020.5
20260831174543 32 219 9.7 19.3 0.00 0.00 0.00 64 1020.5
20260831173530 32 219 11.3 14.5 0.00 0.00 0.00 65 1020.5
20260831172530 32 212 8.0 11.3 0.00 0.00 0.00 66 1020.6
20260831171540 32 223 9.7 14.5 0.00 0.00 0.00 67 1020.6
20260831170520 32 260 8.0 12.9 0.00 0.00 0.00 67 1020.8
20260831165541 31 231 8.0 12.9 0.00 0.00 0.00 66 1020.8
20260831164523 31 230 6.4 14.5 0.00 0.00 0.00 70 1020.9
20260831163551 31 226 11.3 14.5 0.00 0.00 0.00 70 1020.9
20260831162551 30 207 9.7 11.3 0.00 0.00 0.00 72 1020.9
20260831161600 30 204 11.3 14.5 0.00 0.00 0.00 72 1020.9
20260831160521 30 228 4.8 11.3 0.00 0.00 0.00 72 1020.9
20260831155601 30 215 9.7 14.5 0.00 0.00 0.00 73 1021.0
20260831154524 29 222 6.4 11.3 0.00 0.00 0.00 75 1020.9
20260831153521 29 218 6.4 11.3 0.00 0.00 0.00 73 1021.0
20260831152521 28 203 12.9 19.3 0.00 0.00 0.00 75 1020.9
20260831151524 28 208 11.3 17.7 0.00 0.00 0.00 76 1020.9
20260831150554 28 222 11.3 17.7 0.00 0.00 0.00 78 1020.9
20260831145521 27 210 12.9 14.5 0.00 0.00 0.00 78 1020.9
20260831144521 27 216 8.0 12.9 0.00 0.00 0.00 81 1020.8
20260831143521 26 201 8.0 11.3 0.00 0.00 0.00 83 1020.8
20260831142521 25 219 6.4 9.7 0.00 0.00 0.00 85 1020.7
20260831141521 25 208 4.8 6.4 0.00 0.00 0.00 86 1020.7
20260831140601 25 202 3.2 8.0 0.00 0.00 0.00 87 1020.7
20260831135521 24 0.0 0.0 0.00 0.00 0.00 87 1020.7
20260831134522 24 0.0 0.0 0.00 0.00 0.00 89 1020.7
20260831133521 23 0.0 0.0 0.00 0.00 0.00 91 1020.7
20260831132521 23 0.0 0.0 0.00 0.00 0.00 92 1020.7
20260831131521 22 0.0 0.0 0.00 0.00 0.00 93 1020.6
20260831130521 22 0.0 0.0 0.00 0.00 0.00 95 1020.5
20260831125521 22 0.0 0.0 0.00 0.00 0.00 96 1020.5
20260831124521 21 0.0 0.0 0.00 0.00 0.00 97 1020.4
20260831123521 21 0.0 0.0 0.00 0.00 0.00 98 1020.4
20260831122522 21 0.0 0.0 0.00 0.00 0.00 98 1020.3
20260831121521 21 0.0 0.0 0.00 0.00 0.00 98 1020.2
20260831120521 20 0.0 0.0 0.00 0.00 0.00 98 1020.2
20260831115521 20 0.0 0.0 0.00 0.00 0.00 98 1020.2
20260831114521 20 0.0 0.0 0.00 0.00 0.00 98 1020.2
20260831113521 20 0.0 0.0 0.00 0.00 0.00 98 1020.2
20260831112521 20 0.0 0.0 0.00 0.00 0.00 97 1020.1
20260831111522 20 0.0 0.0 0.00 0.00 0.00 97 1020.1
20260831110521 20 0.0 0.0 0.00 0.00 0.00 97 1020.0
20260831105531 20 0.0 0.0 0.00 0.00 0.00 97 1019.7
20260831104711 20 0.0 0.0 0.00 0.00 0.00 96 1019.6
20260831103521 20 0.0 0.0 0.00 0.00 0.00 96 1019.6
20260831102521 20 0.0 0.0 0.00 0.00 0.00 96 1019.6
20260831101522 20 0.0 0.0 0.00 0.00 0.00 96 1019.5
20260831100522 20 0.0 0.0 0.00 0.00 0.00 96 1019.5
20260831095521 20 0.0 0.0 0.00 0.00 0.00 96 1019.5
20260831094541 21 0.0 0.0 0.00 0.00 0.00 95 1019.3
20260831093522 20 0.0 0.0 0.00 0.00 0.00 95 1019.4
20260831092541 21 0.0 0.0 0.00 0.00 0.00 95 1019.3
20260831091522 21 0.0 0.0 0.00 0.00 0.00 95 1019.3
20260831090521 21 0.0 0.0 0.00 0.00 0.00 94 1019.3
20260831085521 21 0.0 0.0 0.00 0.00 0.00 93 1019.2
20260831084521 21 0.0 0.0 0.00 0.00 0.00 92 1019.1
20260831083521 21 0.0 0.0 0.00 0.00 0.00 91 1019.0
20260831082522 22 0.0 0.0 0.00 0.00 0.00 89 1018.8
20260831081522 22 0.0 0.0 0.00 0.00 0.00 88 1018.7
20260831080542 23 0.0 0.0 0.00 0.00 0.00 86 1018.5
20260831075522 22 0.0 0.0 0.00 0.00 0.00 87 1018.4
20260831074522 22 0.0 0.0 0.00 0.00 0.00 88 1018.4
20260831073522 22 0.0 0.0 0.00 0.00 0.00 90 1018.4
20260831072522 22 0.0 0.0 0.00 0.00 0.00 92 1018.7
20260831071521 21 0.0 0.0 0.00 0.00 0.00 94 1018.7
20260831070521 21 0.0 0.0 0.00 0.00 0.00 95 1018.9
20260831065523 21 0.0 0.0 0.00 0.00 0.00 96 1019.0
20260831064522 21 0.0 0.0 0.00 0.00 0.00 97 1019.1
20260831063522 21 0.0 0.0 0.00 0.00 0.00 97 1019.3
20260831062522 21 0.0 0.0 0.00 0.00 0.00 97 1019.5
20260831061522 21 0.0 0.0 0.00 0.00 0.00 98 1019.5
20260831060543 21 0.0 0.0 0.00 0.00 0.00 98 1019.6
20260831055522 21 0.0 0.0 0.00 0.00 0.00 98 1019.6
20260831054522 21 0.0 0.0 0.00 0.00 0.00 98 1019.6
20260831053522 21 0.0 0.0 0.00 0.00 0.00 98 1019.7
20260831052522 21 0.0 0.0 0.00 0.00 0.00 98 1019.6
20260831051522 21 0.0 0.0 0.00 0.00 0.00 98 1019.6
20260831050522 21 0.0 0.0 0.00 0.00 0.00 98 1019.5
20260831045522 20 0.0 0.0 0.00 0.00 0.00 98 1019.4
20260831044522 20 0.0 0.0 0.00 0.00 0.00 97 1019.4
20260831043523 20 0.0 0.0 0.00 0.00 0.00 97 1019.5
20260831042522 20 0.0 0.0 0.00 0.00 0.00 97 1019.5
20260831041603 20 0.0 0.0 0.00 0.00 0.00 97 1019.3
20260831040522 20 0.0 0.0 0.00 0.00 0.00 97 1019.4
20260831035542 21 0.0 0.0 0.00 0.00 0.00 97 1019.6
20260831034523 21 0.0 0.0 0.00 0.00 0.00 97 1019.6
20260831033522 21 0.0 0.0 0.00 0.00 0.00 96 1019.7
20260831032522 21 0.0 0.0 0.00 0.00 0.00 96 1019.6
20260831031543 21 0.0 0.0 0.00 0.00 0.00 96 1019.6
20260831030522 21 0.0 0.0 0.00 0.00 0.00 96 1019.6
20260831025522 21 0.0 0.0 0.00 0.00 0.00 96 1019.7
20260831024523 21 0.0 0.0 0.00 0.00 0.00 95 1019.5
20260831023522 21 0.0 0.0 0.00 0.00 0.00 95 1019.5
20260831022522 21 0.0 0.0 0.00 0.00 0.00 94 1019.5
20260831021522 21 0.0 0.0 0.00 0.00 0.00 94 1019.5